Location: Tucson
(32.2217°N, 110.9265°W)
Time: 02:53:26
(UTC-07:00)

Tiangong - Visible Passes

Search period start: 28 September 2021 00:00
Search period end: 08 October 2021 00:00
Orbit: 382 x 385 km, 41.5° (Epoch: 27 September)

Date Brightness Start Highest point End Pass type
(mag) Time Alt. Az. Time Alt. Az. Time Alt. Az.
28 Sep 3.5 04:19:24 21° NE 04:19:24 21° NE 04:20:42 10° NE visible
29 Sep 2.9 04:54:36 21° NNW 04:54:45 21° NNW 04:57:15 10° NE visible
30 Sep 3.4 05:30:07 10° NW 05:32:04 15° N 05:34:01 10° NE visible
01 Oct 3.6 04:32:42 15° NNE 04:32:42 15° NNE 04:34:01 10° NE visible
02 Oct 3.5 05:07:49 12° NNW 05:09:12 15° N 05:11:10 10° NE visible
03 Oct 4.4 04:10:46 11° NNE 04:10:46 11° NNE 04:10:54 10° NE visible
03 Oct 3.1 05:43:59 10° NW 05:46:29 21° NNE 05:49:00 10° ENE visible
04 Oct 3.4 04:45:55 17° N 04:46:17 17° N 04:48:28 10° NE visible
05 Oct 2.6 05:21:08 13° NW 05:23:27 30° NNE 05:26:17 10° E visible
06 Oct 3.7 04:24:12 19° NE 04:24:12 19° NE 04:25:47 10° ENE visible
07 Oct 1.7 04:59:34 39° NNW 05:00:18 50° NNE 05:03:22 10° ESE visible
